DLH8JV EDDF-EDDC

Flight info

Callsign DLH8JV
Flight time 0h 46m
Altitude 23000
Route SULUS4D/07C SULUS L984 KULOK Z715 ABKIS/N0344F220 Q240 DRN
Aircraft A320/M-SDE2E3FGIJ1LORWXYZ/HB1

Departure

Time 2026-04-14 12:38
Airport Frankfurt Main Airport (EDDF)

Arrival

Time 2026-04-14 13:24
Airport Dresden Airport (EDDC)
Time Latitude Longitude Altitude Speed Heading
2026-04-14 11:57 50.04920 8.59186 365 ft 0 kts 340°
2026-04-14 12:27 50.04903 8.59195 371 ft 4 kts 340°
2026-04-14 12:28 50.04878 8.59210 368 ft 4 kts 340°
2026-04-14 12:28 50.04852 8.59224 369 ft 4 kts 340°
2026-04-14 12:28 50.04844 8.59229 368 ft 0 kts 340°
2026-04-14 12:31 50.04845 8.59228 369 ft 1 kts 340°
2026-04-14 12:31 50.04847 8.59220 369 ft 1 kts 292°
2026-04-14 12:31 50.04834 8.59193 368 ft 6 kts 233°
2026-04-14 12:31 50.04801 8.59084 372 ft 14 kts 254°
2026-04-14 12:32 50.04765 8.58924 372 ft 17 kts 251°
2026-04-14 12:32 50.04721 8.58744 370 ft 18 kts 249°
2026-04-14 12:32 50.04671 8.58561 369 ft 19 kts 248°
2026-04-14 12:32 50.04627 8.58369 371 ft 19 kts 251°
2026-04-14 12:33 50.04576 8.58159 365 ft 23 kts 248°
2026-04-14 12:33 50.04514 8.57918 365 ft 25 kts 249°
2026-04-14 12:33 50.04455 8.57652 367 ft 27 kts 252°
2026-04-14 12:33 50.04385 8.57360 361 ft 30 kts 250°
2026-04-14 12:34 50.04311 8.57049 364 ft 32 kts 249°
2026-04-14 12:34 50.04231 8.56718 360 ft 34 kts 250°
2026-04-14 12:34 50.04150 8.56374 360 ft 30 kts 249°
2026-04-14 12:34 50.04082 8.56093 354 ft 28 kts 250°
2026-04-14 12:35 50.04012 8.55799 355 ft 30 kts 250°
2026-04-14 12:35 50.03948 8.55528 358 ft 25 kts 249°
2026-04-14 12:35 50.03884 8.55263 351 ft 27 kts 250°
2026-04-14 12:35 50.03817 8.54977 352 ft 29 kts 250°
2026-04-14 12:36 50.03743 8.54669 349 ft 31 kts 251°
2026-04-14 12:36 50.03665 8.54348 350 ft 19 kts 246°
2026-04-14 12:36 50.03586 8.54315 350 ft 13 kts 158°
2026-04-14 12:36 50.03512 8.54367 349 ft 11 kts 144°
2026-04-14 12:37 50.03515 8.54523 348 ft 29 kts 68°
2026-04-14 12:37 50.03684 8.55218 352 ft 104 kts 69°
2026-04-14 12:37 50.04002 8.56552 415 ft 151 kts 68°
2026-04-14 12:37 50.04254 8.57549 890 ft 149 kts 68°
2026-04-14 12:38 50.04998 8.60665 2204 ft 169 kts 69°
2026-04-14 12:38 50.05558 8.63158 2796 ft 198 kts 69°
2026-04-14 12:38 50.06043 8.65313 3266 ft 221 kts 69°
2026-04-14 12:39 50.06565 8.67571 4242 ft 222 kts 68°
2026-04-14 12:39 50.07070 8.69855 5234 ft 224 kts 71°
2026-04-14 12:39 50.07251 8.71496 5815 ft 233 kts 86°
2026-04-14 12:39 50.07048 8.74050 6508 ft 252 kts 98°
2026-04-14 12:40 50.06714 8.76846 7105 ft 271 kts 98°
2026-04-14 12:40 50.06353 8.79768 7941 ft 278 kts 99°
2026-04-14 12:40 50.05985 8.82759 8862 ft 285 kts 100°
2026-04-14 12:40 50.05795 8.85847 9782 ft 290 kts 89°
2026-04-14 12:41 50.05839 8.89031 10517 ft 302 kts 90°
2026-04-14 12:41 50.05893 8.92426 10887 ft 325 kts 89°
2026-04-14 12:41 50.05954 8.95998 11573 ft 334 kts 89°
2026-04-14 12:41 50.06017 8.99642 12379 ft 340 kts 89°
2026-04-14 12:42 50.06079 9.03349 13187 ft 345 kts 89°
2026-04-14 12:42 50.06140 9.07106 13996 ft 350 kts 89°
2026-04-14 12:42 50.06197 9.10917 14710 ft 354 kts 89°
2026-04-14 12:42 50.06253 9.14768 15425 ft 359 kts 89°
2026-04-14 12:43 50.06311 9.18674 16126 ft 363 kts 89°
2026-04-14 12:43 50.06368 9.22618 16835 ft 366 kts 89°
2026-04-14 12:43 50.06423 9.26605 17550 ft 370 kts 89°
2026-04-14 12:43 50.06476 9.30631 18275 ft 374 kts 89°
2026-04-14 12:44 50.06526 9.34646 18899 ft 378 kts 90°
2026-04-14 12:44 50.06578 9.38752 19506 ft 381 kts 90°
2026-04-14 12:44 50.06632 9.42898 20113 ft 385 kts 90°
2026-04-14 12:45 50.06734 9.51303 21311 ft 392 kts 90°
2026-04-14 12:45 50.06782 9.55562 21883 ft 395 kts 90°
2026-04-14 12:45 50.06830 9.59855 22373 ft 399 kts 90°
2026-04-14 12:45 50.06875 9.64176 22633 ft 400 kts 90°
2026-04-14 12:46 50.06918 9.68500 22894 ft 400 kts 90°
2026-04-14 12:46 50.06962 9.72836 23124 ft 402 kts 90°
2026-04-14 12:46 50.07005 9.77121 23167 ft 387 kts 90°
2026-04-14 12:46 50.07045 9.81231 23170 ft 375 kts 90°
2026-04-14 12:47 50.07081 9.85276 23169 ft 372 kts 91°
2026-04-14 12:47 50.07111 9.89300 23169 ft 372 kts 91°
2026-04-14 12:47 50.07142 9.93320 23178 ft 371 kts 91°
2026-04-14 12:47 50.07175 9.97340 23179 ft 371 kts 91°
2026-04-14 12:48 50.07204 10.01302 23181 ft 371 kts 91°
2026-04-14 12:48 50.07231 10.05318 23179 ft 371 kts 91°
2026-04-14 12:48 50.07257 10.09333 23172 ft 371 kts 91°
2026-04-14 12:48 50.07282 10.13338 23177 ft 369 kts 91°
2026-04-14 12:49 50.07305 10.17327 23176 ft 368 kts 91°
2026-04-14 12:49 50.07325 10.21313 23175 ft 368 kts 91°
2026-04-14 12:49 50.07343 10.25297 23174 ft 368 kts 91°
2026-04-14 12:49 50.07361 10.29281 23174 ft 368 kts 91°
2026-04-14 12:50 50.07379 10.33266 23174 ft 368 kts 91°
2026-04-14 12:50 50.07421 10.41233 23175 ft 368 kts 91°
2026-04-14 12:50 50.07442 10.45222 23176 ft 368 kts 91°
2026-04-14 12:51 50.07456 10.49208 23173 ft 368 kts 91°
2026-04-14 12:51 50.07471 10.53195 23174 ft 368 kts 91°
2026-04-14 12:51 50.07483 10.57186 23175 ft 369 kts 91°
2026-04-14 12:51 50.07494 10.61115 23183 ft 368 kts 91°
2026-04-14 12:52 50.07502 10.65089 23191 ft 367 kts 90°
2026-04-14 12:52 50.07510 10.69062 23191 ft 366 kts 91°
2026-04-14 12:52 50.07519 10.73023 23191 ft 365 kts 91°
2026-04-14 12:52 50.07527 10.76971 23189 ft 365 kts 90°
2026-04-14 12:53 50.07532 10.80919 23187 ft 364 kts 91°
2026-04-14 12:53 50.07535 10.84863 23180 ft 364 kts 91°
2026-04-14 12:53 50.07534 10.88806 23182 ft 364 kts 91°
2026-04-14 12:53 50.07530 10.92751 23182 ft 364 kts 91°
2026-04-14 12:54 50.07526 10.96690 23173 ft 364 kts 92°
2026-04-14 12:54 50.07522 11.00629 23176 ft 364 kts 91°
2026-04-14 12:54 50.07515 11.04572 23173 ft 364 kts 91°
2026-04-14 12:54 50.07508 11.08508 23170 ft 364 kts 91°
2026-04-14 12:55 50.07501 11.12450 23168 ft 364 kts 91°
2026-04-14 12:55 50.07492 11.16386 23169 ft 364 kts 91°
2026-04-14 12:55 50.07482 11.20326 23169 ft 364 kts 91°
2026-04-14 12:55 50.07472 11.24263 23167 ft 364 kts 91°
2026-04-14 12:56 50.07460 11.28196 23163 ft 363 kts 91°
2026-04-14 12:56 50.07444 11.32074 23162 ft 364 kts 91°
2026-04-14 12:56 50.07425 11.36010 23159 ft 363 kts 91°
2026-04-14 12:56 50.07407 11.39942 23153 ft 363 kts 91°
2026-04-14 12:57 50.07389 11.43878 23153 ft 363 kts 91°
2026-04-14 12:57 50.07370 11.47805 23154 ft 364 kts 91°
2026-04-14 12:57 50.07352 11.51743 23147 ft 364 kts 91°
2026-04-14 12:57 50.07334 11.55680 23151 ft 364 kts 90°
2026-04-14 12:58 50.07590 11.59604 23148 ft 366 kts 78°
2026-04-14 12:58 50.08374 11.63366 23147 ft 366 kts 65°
2026-04-14 12:58 50.09652 11.66791 23147 ft 367 kts 53°
2026-04-14 12:58 50.11334 11.69771 23150 ft 367 kts 46°
2026-04-14 12:59 50.13084 11.72662 23150 ft 367 kts 46°
2026-04-14 12:59 50.14833 11.75569 23150 ft 367 kts 47°
2026-04-14 12:59 50.16578 11.78479 23154 ft 367 kts 47°
2026-04-14 12:59 50.18311 11.81410 23152 ft 368 kts 50°
2026-04-14 13:00 50.19785 11.84662 23152 ft 367 kts 59°
2026-04-14 13:00 50.21118 11.88064 23152 ft 367 kts 59°
2026-04-14 13:00 50.22453 11.91464 23153 ft 368 kts 59°
2026-04-14 13:00 50.23790 11.94866 23155 ft 368 kts 59°
2026-04-14 13:01 50.25127 11.98271 23158 ft 368 kts 59°
2026-04-14 13:01 50.26446 12.01632 23165 ft 368 kts 58°
2026-04-14 13:01 50.27829 12.04988 23161 ft 368 kts 56°
2026-04-14 13:01 50.29269 12.08294 23155 ft 368 kts 55°
2026-04-14 13:02 50.30738 12.11578 23150 ft 368 kts 54°
2026-04-14 13:02 50.32213 12.14858 23148 ft 369 kts 54°
2026-04-14 13:02 50.33682 12.18146 23149 ft 369 kts 55°
2026-04-14 13:02 50.35038 12.21553 23147 ft 369 kts 62°
2026-04-14 13:03 50.36239 12.25105 23149 ft 369 kts 62°
2026-04-14 13:03 50.37437 12.28665 23141 ft 370 kts 62°
2026-04-14 13:03 50.38631 12.32229 23143 ft 370 kts 62°
2026-04-14 13:03 50.39824 12.35797 23144 ft 370 kts 62°
2026-04-14 13:04 50.41018 12.39368 23151 ft 370 kts 62°
2026-04-14 13:04 50.42215 12.42940 23154 ft 370 kts 62°
2026-04-14 13:04 50.43412 12.46511 23154 ft 370 kts 62°
2026-04-14 13:04 50.44608 12.50082 23148 ft 370 kts 62°
2026-04-14 13:05 50.45786 12.53612 23148 ft 370 kts 62°
2026-04-14 13:05 50.46976 12.57191 23147 ft 370 kts 62°
2026-04-14 13:05 50.48162 12.60764 23151 ft 370 kts 63°
2026-04-14 13:05 50.49351 12.64345 23150 ft 370 kts 63°
2026-04-14 13:06 50.50539 12.67930 23095 ft 369 kts 63°
2026-04-14 13:06 50.51716 12.71483 22810 ft 364 kts 63°
2026-04-14 13:06 50.52881 12.75001 22527 ft 362 kts 63°
2026-04-14 13:06 50.54037 12.78499 22262 ft 360 kts 63°
2026-04-14 13:07 50.55185 12.81973 21957 ft 356 kts 63°
2026-04-14 13:07 50.56321 12.85415 21523 ft 354 kts 63°
2026-04-14 13:07 50.57447 12.88839 21076 ft 352 kts 63°
2026-04-14 13:07 50.58567 12.92252 20641 ft 350 kts 63°
2026-04-14 13:08 50.59680 12.95644 20206 ft 348 kts 63°
2026-04-14 13:08 50.60787 12.99029 19780 ft 347 kts 63°
2026-04-14 13:08 50.61889 13.02406 19350 ft 346 kts 62°
2026-04-14 13:08 50.62994 13.05775 18925 ft 346 kts 62°
2026-04-14 13:09 50.64175 13.09071 18503 ft 346 kts 59°
2026-04-14 13:09 50.65429 13.12300 18032 ft 345 kts 57°
2026-04-14 13:09 50.66710 13.15483 17609 ft 343 kts 57°
2026-04-14 13:09 50.67989 13.18642 17179 ft 341 kts 57°
2026-04-14 13:10 50.69255 13.21793 16775 ft 339 kts 57°
2026-04-14 13:10 50.70489 13.24894 16382 ft 338 kts 58°
2026-04-14 13:10 50.71726 13.28037 15979 ft 337 kts 58°
2026-04-14 13:10 50.72955 13.31182 15590 ft 336 kts 58°
2026-04-14 13:11 50.74174 13.34318 15198 ft 335 kts 58°
2026-04-14 13:11 50.75389 13.37450 14807 ft 334 kts 58°
2026-04-14 13:11 50.76602 13.40578 14412 ft 333 kts 58°
2026-04-14 13:11 50.77810 13.43694 14018 ft 333 kts 58°
2026-04-14 13:12 50.79015 13.46813 13591 ft 332 kts 58°
2026-04-14 13:12 50.80212 13.49915 13199 ft 330 kts 58°
2026-04-14 13:12 50.81402 13.52999 12804 ft 327 kts 58°
2026-04-14 13:12 50.82619 13.56025 12410 ft 325 kts 53°
2026-04-14 13:13 50.84161 13.58612 12022 ft 322 kts 40°
2026-04-14 13:13 50.85859 13.60911 11630 ft 320 kts 40°
2026-04-14 13:13 50.87544 13.63205 11233 ft 319 kts 40°
2026-04-14 13:13 50.89217 13.65490 10829 ft 317 kts 40°
2026-04-14 13:14 50.90885 13.67774 10426 ft 317 kts 40°
2026-04-14 13:14 50.92553 13.70057 10047 ft 316 kts 41°
2026-04-14 13:14 50.94183 13.72289 9814 ft 303 kts 40°
2026-04-14 13:14 50.95783 13.74477 9380 ft 303 kts 40°
2026-04-14 13:15 50.97369 13.76651 9006 ft 300 kts 40°
2026-04-14 13:15 50.98943 13.78811 8622 ft 298 kts 40°
2026-04-14 13:15 51.00500 13.80950 8087 ft 294 kts 40°
2026-04-14 13:15 51.02035 13.83061 7621 ft 289 kts 40°
2026-04-14 13:16 51.03553 13.85148 7137 ft 289 kts 40°
2026-04-14 13:16 51.05070 13.87239 6686 ft 287 kts 39°
2026-04-14 13:16 51.06558 13.89293 6207 ft 279 kts 40°
2026-04-14 13:16 51.07998 13.91299 5748 ft 271 kts 40°
2026-04-14 13:17 51.09408 13.93270 5445 ft 266 kts 40°
2026-04-14 13:17 51.10761 13.95173 5325 ft 253 kts 40°
2026-04-14 13:17 51.12033 13.96967 5186 ft 243 kts 39°
2026-04-14 13:17 51.13292 13.98739 5064 ft 241 kts 39°
2026-04-14 13:18 51.14543 14.00495 4937 ft 239 kts 39°
2026-04-14 13:18 51.15783 14.02243 4805 ft 238 kts 40°
2026-04-14 13:18 51.17021 14.03989 4680 ft 237 kts 39°
2026-04-14 13:18 51.18360 14.05465 4542 ft 232 kts 15°
2026-04-14 13:19 51.19912 14.05417 4420 ft 224 kts 336°
2026-04-14 13:19 51.21198 14.04175 4288 ft 212 kts 320°
2026-04-14 13:19 51.22289 14.02675 4156 ft 204 kts 316°
2026-04-14 13:19 51.23330 14.01164 4017 ft 202 kts 316°
2026-04-14 13:20 51.24375 13.99675 3761 ft 201 kts 317°
2026-04-14 13:20 51.25423 13.98221 3508 ft 199 kts 316°
2026-04-14 13:20 51.26107 13.96372 3251 ft 196 kts 279°
2026-04-14 13:20 51.25892 13.94271 3036 ft 197 kts 241°
2026-04-14 13:21 51.24937 13.92668 3009 ft 203 kts 224°
2026-04-14 13:21 51.23870 13.91212 3002 ft 197 kts 224°
2026-04-14 13:21 51.22853 13.89815 2949 ft 190 kts 224°
2026-04-14 13:21 51.21859 13.88440 2755 ft 189 kts 224°
2026-04-14 13:22 51.20870 13.87071 2529 ft 186 kts 224°
2026-04-14 13:22 51.19927 13.85768 2285 ft 171 kts 224°
2026-04-14 13:22 51.19064 13.84577 2043 ft 157 kts 224°
2026-04-14 13:22 51.18265 13.83471 1828 ft 148 kts 225°
2026-04-14 13:23 51.17511 13.82430 1636 ft 143 kts 225°
2026-04-14 13:23 51.16767 13.81400 1423 ft 141 kts 224°
2026-04-14 13:23 51.16036 13.80391 1233 ft 138 kts 222°
2026-04-14 13:23 51.15314 13.79395 1033 ft 137 kts 224°
2026-04-14 13:24 51.14591 13.78410 842 ft 136 kts 224°
2026-04-14 13:24 51.13328 13.76645 744 ft 86 kts 221°
2026-04-14 13:24 51.12999 13.76199 755 ft 43 kts 221°
2026-04-14 13:25 51.12795 13.75910 762 ft 36 kts 219°
2026-04-14 13:25 51.12684 13.75838 763 ft 4 kts 139°
2026-04-14 13:26 51.12587 13.76032 757 ft 10 kts 130°
2026-04-14 13:26 51.12593 13.76103 755 ft 6 kts 48°
2026-04-14 13:26 51.12621 13.76154 757 ft 8 kts 49°
2026-04-14 13:26 51.12684 13.76245 756 ft 14 kts 40°
2026-04-14 13:27 51.12760 13.76347 752 ft 15 kts 40°
2026-04-14 13:27 51.12765 13.76452 753 ft 9 kts 136°
2026-04-14 13:27 51.12725 13.76522 750 ft 8 kts 130°
2026-04-14 13:27 51.12690 13.76588 751 ft 8 kts 129°
2026-04-14 13:28 51.12654 13.76586 752 ft 5 kts 228°
2026-04-14 13:28 51.12627 13.76541 749 ft 1 kts 221°
2026-04-14 13:28 51.12626 13.76540 749 ft 0 kts 221°